Regional Weather Roundup
Issued by NWS Northern Indiana

Home | Current Version | Previous Version | Graphics & Text | Print | Product List | Glossary On
Versions: 1 2 3 4 5 6 7 8 9 10 11 12 13 14 15 16 17 18 19 20 21 22 23 24 25 26 27 28 29 30 31 32 33 34 35 36 37 38 39 40 41 42 43 44 45 46 47 48 49 50
000
ASUS43 KIWX 020710
RWRIWX

KIWX WEATHER ROUNDUP
NATIONAL WEATHER SERVICE NORTHERN INDIANA
300 AM EDT WED SEP 02 2015

NOTE: "FAIR" INDICATES FEW OR NO CLOUDS BELOW 12,000 FEET WITH NO
SIGNIFICANT WEATHER AND/OR OBSTRUCTIONS TO VISIBILITY.

* THESE STATIONS ARE NOT UNDER NWS QUALITY CONTROL. THEY ALSO MAY NOT
  REPORT WEATHER SUCH AS PRECIPITATION OR FOG.

INZ001>027-020800-
NORTHERN INDIANA

CITY           SKY/WX    TMP DP  RH WIND       PRES   REMARKS
GARY*          CLEAR     74  67  78 CALM      30.05S
VALPARAISO     CLEAR     71  68  90 SW3       30.06F
MICHIGAN CITY* CLEAR     70  66  88 S3        30.05F
LAPORTE*       PTCLDY   N/A N/A N/A CALM      30.07S
KNOX*          CLEAR     68  68 100 S3        30.05F
SOUTH BEND     PTCLDY    72  68  87 SW6       30.06F
GOSHEN         CLEAR     69  66  90 S3        30.07S
MONTICELLO*    CLEAR     70  70  99 S5        30.06F
LOGANSPORT*    CLEAR     68  63  83 SW5       30.08F
ROCHESTER*     CLEAR     73  70  88 SW3       30.07F
WARSAW*        CLEAR     70  68  94 CALM      30.07F
ANGOLA*          N/A     70  61  73 CALM      30.08S VSB 3/4
FORT WAYNE     CLEAR     69  66  90 S3        30.08F
HUNTINGTON*    CLEAR     68  64  86 SW3       30.08F
PERU/GRISSOM   CLEAR     69  66  91 SW2       30.07F
MARION*        CLEAR     67  60  78 S3        30.10S

$$
INZ028>050-020800-
CENTRAL INDIANA

CITY           SKY/WX    TMP DP  RH WIND       PRES   REMARKS
LAFAYETTE      CLEAR     68  67  96 CALM      30.07F
KOKOMO*        CLEAR     70  64  83 SW6       30.08F
MUNCIE*        PTCLDY    70  66  87 SW6       30.10F
INDIANAPOLIS   CLEAR     71  66  84 SW5       30.08F

$$
MIZ043>046-050>051-056>058-064>065-071>073-077>080-020800-
SOUTHWEST LOWER MICHIGAN

CITY           SKY/WX    TMP DP  RH WIND       PRES   REMARKS
BATTLE CREEK   CLEAR     72  69  90 SW5       30.06F
BENTON HARBOR  CLEAR     73  69  87 S3        30.03F
COLDWATER*     CLEAR     70  69  95 CALM      30.07F
HILLSDALE*     CLEAR     72  71  96 W3        30.08F
HOLLAND        CLEAR     77  70  79 SW12      30.02F
GRAND RAPIDS   PTCLDY    73  71  93 SW3       30.03F
KALAMAZOO      CLEAR     71  68  90 SW6       30.05F
STURGIS*       CLEAR     66  66 100 CALM      30.07S
THREE RIVERS*  FAIR      69  69  99 CALM      30.06F FOG

$$
OHZ001>008-015>018-024>025-020800-
NORTHWEST OHIO

CITY           SKY/WX    TMP DP  RH WIND       PRES   REMARKS
WAUSEON*       FAIR      68  68 100 SW5       30.07F
DEFIANCE       CLEAR     70  66  87 S3        30.08F
FINDLAY        CLEAR     69  65  86 S5        30.08F
TOLEDO EXPRESS CLEAR     70  66  87 SW5       30.06F
TOLEDO METCALF CLEAR     71  65  81 SW5       30.07F
LIMA           CLEAR     70  66  87 SW5       30.10F

$$
AND FOR LAKE MICHIGAN COASTAL AND OPEN LAKE BUOY OBSERVATIONS

STATION/POSITION TEMP    WIND        PRES    VSBY  WAVE
                 AIR SEA DIR/SP/G                  HT/PER
                 (F)     (DEG/KT/KT) (MB)    (MI)  (FT/S)
CALUMET HARBOR    76     210/  5/  8   N/A
MICHIGAN CITY     76     180/  9/ 10   N/A
BURNS HARBOR      76     210/ 10/ 12 1017.6F
SAINT JOSEPH      77     170/  8/ 11 1017.9R
SOUTH LAKE BUOY   72 70  190/ 10/ 10 1015.6F
4 MI NW BRIDGMAN  74 73  230/  6/  8   N/A           1/ 3
MICHIGAN CITY     74 72  220/  8/ 10   N/A           1/ 3

$$
&&


USA.gov is the U.S. government's official web portal to all federal, state and local government web resources and services.